Weather History for Klawock, AK

Change the Weather History Date:

Monday, September 30, 2013

  Actual Average Record
Temperature  
Mean Temperature 46 °F -  
Max Temperature 57 °F 53 °F 73 °F (2008)
Min Temperature 37 °F 41 °F 33 °F (2002)
Degree Days  
Heating Degree Days 19    
Moisture  
Dew Point 42 °F    
Average Humidity 91    
Maximum Humidity 100    
Minimum Humidity 67    
Precipitation  
Precipitation 0.25 in - - ()
Sea Level Pressure  
Sea Level Pressure 29.28 in    
Wind  
Wind Speed 1 mph (SSW)    
Max Wind Speed 6 mph    
Max Gust Speed -    
Visibility 7 miles    
Events Rain    
Averages and records for this station are not official NWS values.
T = Trace of Precipitation, MM = Missing Value Source: NWS Daily Summary

Daily Weather History Graph

Daily Weather History Graph

Search for Another Location

Airport:

Trip Planner

Search our weather history database for the weather conditions in past years. The results will help you decide how hot, cold, wet, or windy it might be!

Date:

Astronomy

Sep. 30, 2013 Rise Set
Actual Time 6:53 AM AKDT 6:29 PM AKDT
Civil Twilight 6:17 AM AKDT 7:05 PM AKDT
Nautical Twilight 5:34 AM AKDT 7:48 PM AKDT
Astronomical Twilight 4:49 AM AKDT 8:32 PM AKDT
Moon 1:59 AM AKDT (9/30) 4:36 PM AKDT (9/30)
Length of Visible Light 12h 48m
Length of Day
11h 35m
Waning Crescent, 18% of the Moon is Illuminated
Sep 30
Waning Crescent
Oct 4
New
Oct 11
First Quarter
Oct 18
Full
Oct 26
Last Quarter

Hourly Weather History & Observations

Time (AKDT) Temp. Windchill Dew Point Humidity Pressure Visibility Wind Dir Wind Speed Gust Speed Precip Events Conditions
12:53 AM 46.0 °F 43.9 °F 44.1 °F 93% 29.11 in 10.0 mi NE 4.6 mph - N/A   Scattered Clouds
1:53 AM 44.1 °F - 42.1 °F 93% 29.13 in 10.0 mi Calm Calm - N/A   Clear
2:53 AM 43.0 °F - 41.0 °F 93% 29.13 in 10.0 mi Calm Calm - N/A   Scattered Clouds
3:53 AM 41.0 °F - 39.9 °F 96% 29.14 in 10.0 mi Calm Calm - N/A   Mostly Cloudy
4:53 AM 41.0 °F - 39.9 °F 96% 29.15 in 10.0 mi Calm Calm - N/A   Scattered Clouds
5:32 AM 37.4 °F - 37.4 °F 100% 29.15 in 8.0 mi Calm Calm - N/A   Scattered Clouds
5:53 AM 37.9 °F - 37.0 °F 97% 29.17 in 10.0 mi Calm Calm - N/A   Partly Cloudy
6:25 AM 39.2 °F - 37.4 °F 93% 29.17 in 1.8 mi Calm Calm - N/A   Partly Cloudy
6:44 AM 39.2 °F - 37.4 °F 93% 29.18 in 3.0 mi Calm Calm - 0.01 in   Clear
6:53 AM 37.9 °F - 37.0 °F 97% 29.18 in 2.5 mi Calm Calm - 0.01 in   Partly Cloudy
6:57 AM 37.4 °F - 37.4 °F 100% 29.18 in 1.2 mi Calm Calm - N/A   Scattered Clouds
7:08 AM 37.4 °F - 37.4 °F 100% 29.18 in 1.0 mi Calm Calm - N/A   Mist
7:19 AM 39.2 °F - 37.4 °F 93% 29.19 in 1.5 mi Calm Calm - N/A   Scattered Clouds
7:26 AM 37.4 °F - 37.4 °F 100% 29.19 in 1.2 mi Calm Calm - N/A   Mostly Cloudy
7:30 AM 37.4 °F - 35.6 °F 93% 29.19 in 1.5 mi Calm Calm - N/A   Scattered Clouds
7:34 AM 37.4 °F - 35.6 °F 93% 29.19 in 4.0 mi Calm Calm - N/A   Scattered Clouds
7:53 AM 39.0 °F - 37.9 °F 96% 29.20 in 1.5 mi Calm Calm - N/A   Partly Cloudy
7:56 AM 39.2 °F - 37.4 °F 93% 29.20 in 1.0 mi Calm Calm - N/A   Mist
8:04 AM 39.2 °F - 37.4 °F 93% 29.21 in 1.5 mi Calm Calm - N/A   Partly Cloudy
8:53 AM 42.1 °F - 41.0 °F 96% 29.23 in 10.0 mi Calm Calm - N/A   Clear
9:53 AM 48.0 °F - 45.0 °F 89% 29.25 in 10.0 mi Calm Calm - N/A   Clear
10:53 AM 50.0 °F - 46.9 °F 89% 29.27 in 10.0 mi Calm Calm - N/A   Clear
11:53 AM 52.0 °F - 46.9 °F 83% 29.29 in 10.0 mi Calm Calm - N/A   Clear
12:53 PM 55.0 °F - 46.9 °F 74% 29.30 in 10.0 mi SW 4.6 mph - N/A   Clear
1:53 PM 55.0 °F - 44.1 °F 67% 29.32 in 10.0 mi SSW 4.6 mph - N/A   Clear
2:53 PM 55.9 °F - 46.0 °F 69% 29.34 in 10.0 mi SW 5.8 mph - N/A   Partly Cloudy
3:53 PM 54.0 °F - 46.9 °F 77% 29.36 in 10.0 mi WSW 3.5 mph - N/A   Mostly Cloudy
4:53 PM 53.1 °F - 48.0 °F 83% 29.37 in 10.0 mi Calm Calm - N/A   Overcast
5:40 PM 51.8 °F - 46.4 °F 82% 29.39 in 10.0 mi Calm Calm - N/A   Overcast
5:53 PM 51.1 °F - 46.9 °F 86% 29.40 in 10.0 mi Variable 3.5 mph - 0.00 in Rain Light Rain
6:26 PM 48.2 °F - 46.4 °F 93% 29.41 in 5.0 mi Calm Calm - 0.03 in Rain Rain
6:53 PM 48.9 °F - 48.0 °F 97% 29.43 in 9.0 mi Calm Calm - 0.07 in Rain Light Rain
7:08 PM 48.2 °F - 46.4 °F 93% 29.43 in 2.5 mi SSE 3.5 mph - 0.10 in Rain Heavy Rain
7:17 PM 48.2 °F - 46.4 °F 93% 29.43 in 5.0 mi Calm Calm - 0.13 in Rain Rain
7:53 PM 48.0 °F - 46.9 °F 96% 29.45 in 10.0 mi Calm Calm - 0.15 in Rain Light Rain
8:53 PM 48.0 °F - 46.9 °F 96% 29.47 in 10.0 mi Calm Calm - 0.00 in Rain Light Rain
9:53 PM 48.0 °F - 46.9 °F 96% 29.48 in 10.0 mi Calm Calm - 0.00 in Rain Light Rain
10:53 PM 48.0 °F - 46.9 °F 96% 29.51 in 10.0 mi Calm Calm - 0.01 in Rain Light Rain
11:53 PM 46.9 °F - 46.0 °F 97% 29.53 in 10.0 mi Calm Calm - 0.01 in Rain Light Rain